Location: Bottens
(46.6171°N, 6.6605°E)
Time: 09:46:00
(UTC+00:00)

Cosmos 1825 - Pass Details

Date: 30 October 2021
Orbit: 501 x 504 km, 82.5° (Epoch: 28 November)

Event Time Altitude Azimuth Distance (km) Brightness Sun altitude
Rises 17:36:50 0° 355° (N) 2,610 5.8 -13.5°
Reaches altitude 10° 17:39:01 10° 1° (N) 1,721 4.8 -13.9°
Maximum altitude 17:42:41 50° 78° (ENE) 649 2.2 -14.5°
Drops below altitude 10° 17:46:20 10° 155° (SSE) 1,708 4.6 -15.1°
Sets 17:48:29 0° 160° (SSE) 2,588 5.6 -15.5°
